www.pogodaiklimat.ru

Погода и климат >> Архив погоды >> Индонезия >> Сабанг


ПОГОДА в Сабанге

  • Прогноз погоды в Сабанге
  • Монитор погоды в Сабанге

АРХИВ ПОГОДЫ в Сабанге

Время (UTC), дата Ветер
(напр.,м/с)
 
Видим.   Явления Облачность Т
(С)
Тd
(С)
f
(%)
Тe
(С)
Тes
(С)
Комфортность P
(гПа)
Po
(гПа)
Тmin
(С)
Tmax
(С)
R
(мм)
R24
(мм)
S
(см)
12 14.08 З 5 8000 м 10/5 600 м
[Sc Ac As Ci sp]
+28.0 +22.4 72 +37 +37 очень
душно
1011.6 997.1 +33.0
15 14.08 З 5 6000 м 10/5 600 м
[Sc Ac As Ci sp]
+25.6 +22.6 84 +34 +34 очень
душно
1014.5 1000.0
18 14.08 З 3 6000 м 9/5 600 м
[Sc Ac As Ci sp]
+25.6 +22.9 85 +34 +34 очень
душно
1013.0 998.5
21 14.08 штиль 0 6000 м 10/5 600 м
[Sc Ac As Ci sp]
+25.6 +22.6 84 +34 +34 очень
душно
1011.4 996.9
00 15.08 З 3 6000 м 10/5 600 м
[Sc Ac As Ci sp]
+26.2 +22.3 79 +34 +34 очень
душно
1012.2 997.7 +25.0 4
03 15.08 З 7 10 км 10/5 600 м
[Sc Ac As Ci sp]
+28.4 +23.1 73 +38 +39 очень
душно
1014.2 999.6
06 15.08 З 6 12 км 10/5 600 м
[Sc Ac As Ci sp]
+30.8 +23.9 67 +42 +44 опасность
перегрева
1012.5 997.9
09 15.08 З 7 12 км 9/5 600 м
[Cu med, cong Ac trans Ci sp]
+30.9 +23.8 66 +42 +43 опасность
перегрева
1010.5 995.9
12 15.08 З 6 8000 м 9/5 600 м
[Cu med, cong Ac trans Ci sp]
+27.5 +23.8 80 +38 +38 очень
душно
1011.5 996.9 +31.0
15 15.08 З 6 6000 м 9/5 600 м
[Cu med, cong Ac trans Ci sp]
+27.3 +23.9 82 +38 +38 очень
душно
1012.4 997.8
18 15.08 З 6 6000 м 9/5 600 м
[Cu med, cong Ac trans Ci sp]
+27.2 +23.7 81 +37 +37 очень
душно
1011.6 997.1
21 15.08 З 8 6000 м 9/5 600 м
[Cu med, cong Ac trans Ci sp]
+26.8 +23.5 82 +36 +36 очень
душно
1010.4 995.9
00 16.08 ЮЗ 6 8000 м 9/5 600 м
[Cu med, cong Ac trans Ci sp]
+27.2 +23.7 81 +37 +37 очень
душно
1010.8 996.2 +26.2
03 16.08 ЮЗ 4 10 км 9/5 600 м
[Cu med, cong Ac trans Ci sp]
+30.0 +22.7 65 +40 +42 очень
душно
1012.4 997.9
06 16.08 ЮЗ 6 10 км 9/5 600 м
[Cu med, cong Ac trans Ci sp]
+30.9 +23.5 65 +42 +44 опасность
перегрева
1011.5 997.0
09 16.08 ЮЗ 5 10 км 9/5 600 м
[Cu med, cong Ac trans Ci sp]
+30.2 +23.5 67 +41 +42 опасность
перегрева
1009.9 995.3
12 16.08 ЮЗ 8 8000 м 9/5 600 м
[Cu med, cong Ac trans Ci sp]
+28.6 +20.8 63 +36 +36 очень
душно
1010.1 995.5 +31.6
15 16.08 ЮЗ 8 7000 м 9/5 600 м
[Cu med, cong Ac trans Ci sp]
+28.7 +21.7 66 +37 +37 очень
душно
1012.7 998.1
18 16.08 ЮЗ 6 6000 м 10/5 600 м
[Cu med, cong Ac trans Ci sp]
+25.2 +23.4 90 +34 +34 очень
душно
1012.5 998.0
21 16.08 ЮЗ 4 7000 м 9/5 600 м
[Cu med, cong Ac trans Ci sp]
+25.3 +23.3 89 +34 +34 очень
душно
1010.9 996.4
00 17.08 СЗ 3 7000 м 9/5 600 м
[Cu med, cong Ac trans Ci sp]
+25.0 +23.2 90 +33 +34 очень
душно
1011.3 996.7 +24.4
03 17.08 Ю 4 8000 м 9/5 600 м
[Cu med, cong Ac trans Ci sp]
+30.2 +24.4 71 +42 +45 опасность
перегрева
1010.8 996.2
06 17.08 З 4 10 км 9/5 600 м
[Cu med, cong Ac trans Ci sp]
+33.0 +20.5 48 +40 +44 очень
душно
1010.4 995.8
09 17.08 З 7 10 км 9/5 600 м
[Cu med, cong Ac trans Ci sp]
+32.6 +20.4 49 +39 +40 очень
душно
1009.3 994.8
12 17.08 штиль 0 8000 м 8/4 600 м
[Sc Ac trans Ci sp]
+27.4 +20.7 67 +34 +34 очень
душно
1010.8 996.2 +33.4
15 17.08 штиль 0 7000 м 8/4 600 м
[Sc Ac trans Ci sp]
+25.8 +21.2 76 +33 +33 очень
душно
1012.4 997.8
18 17.08 штиль 0 7000 м 8/4 600 м
[Sc Ac trans Ci sp]
+25.2 +22.8 87 +33 +33 очень
душно
1011.7 997.2
21 17.08 штиль 0 7000 м 8/4 600 м
[Sc Ac trans Ci sp]
+25.8 +24.0 90 +36 +36 очень
душно
1011.2 996.7
00 18.08 штиль 0 8000 м 8/4 600 м
[Cu med, cong Ac trans Ci sp]
+26.0 +24.2 90 +36 +36 очень
душно
1012.2 997.6 +24.6
03 18.08 ЮВ 6 10 км 8/4 600 м
[Cu med, cong Ac trans Ci sp]
+30.4 +24.7 72 +43 +46 опасность
перегрева
1013.1 998.6
06 18.08 ЮВ 6 12 км 8/4 600 м
[Cu med, cong Ac trans Ci sp]
+32.0 +25.2 67 +46 +50 опасность
перегрева
1011.7 997.1
09 18.08 В 3 12 км 8/4 600 м
[Cu med, cong Ac trans Ci sp]
+31.2 +24.3 67 +43 +47 опасность
перегрева
1010.3 995.7
12 18.08 ЮВ 3 8000 м 8/4 600 м
[Sc Ac trans Ci sp]
+28.0 +24.2 80 +39 +39 очень
душно
1011.2 996.7 +32.4
15 18.08 ЮВ 3 7000 м 8/4 600 м
[Sc Ac trans Ci sp]
+27.4 +24.8 86 +39 +39 очень
душно
1012.6 998.0
18 18.08 ЮВ 3 6000 м 9/5 600 м
[Sc Ac trans Ci sp]
+27.8 +24.6 83 +39 +39 очень
душно
1012.4 997.8
21 18.08 ЮВ 2 6000 м 9/5 600 м
[Sc Ac trans Ci sp]
+27.2 +25.1 88 +39 +39 очень
душно
1011.0 996.4
00 19.08 Ю 3 7000 м 8/4 600 м
[Sc Ac trans Ci sp]
+26.4 +24.6 90 +37 +37 очень
душно
1011.9 997.3 +25.6
03 19.08 ЮВ 4 10 км 8/3 600 м
[Cu med, cong Ac trans Ci sp]
+30.2 +24.8 73 +43 +47 опасность
перегрева
1013.1 998.5
06 19.08 В 3 10 км 8/3 600 м
[Cu med, cong Ac trans Ci sp]
+31.2 +25.8 73 +46 +54 опасность
перегрева
1011.3 996.7
09 19.08 ЮВ 2 10 км 9/5 600 м
[Cu med, cong Ac trans Ci sp]
+29.4 +25.1 78 +43 +45 опасность
перегрева
1010.3 995.7
12 19.08 штиль 0 8000 м 9/5 600 м
[Cu med, cong Ac trans Ci sp]
+29.4 +26.0 82 +44 +44 опасность
перегрева
1011.1 996.5 +32.6
15 19.08 штиль 0 8000 м 9/5 600 м
[Cu med, cong Ac trans Ci sp]
+27.2 +25.1 88 +39 +39 очень
душно
1012.4 997.9
18 19.08 штиль 0 7000 м 9/5 600 м
[Cu med, cong Ac trans Ci sp]
+26.4 +24.8 91 +38 +38 очень
душно
1011.4 996.9
21 19.08 штиль 0 7000 м 9/5 600 м
[Cu med, cong Ac trans Ci sp]
+26.0 +24.2 90 +36 +36 очень
душно
1010.3 995.8
00 20.08 штиль 0 8000 м 9/4 600 м
[Cu med, cong Ac trans Ci sp]
+26.0 +23.9 88 +36 +36 очень
душно
1011.2 996.6 +25.6
03 20.08 штиль 0 10 км 9/5 600 м
[Cu med, cong Ac trans Ci sp]
+30.6 +23.7 67 +42 +47 опасность
перегрева
1011.9 997.3
06 20.08 З 5 12 км 9/5 600 м
[Cu med, cong Ac trans Ci sp]
+32.6 +23.4 58 +43 +46 опасность
перегрева
1010.6 996.1
09 20.08 З 6 10 км 8/4 600 м
[Sc Ac trans Ci sp]
+31.8 +22.1 57 +41 +42 опасность
перегрева
1009.4 994.8
12 20.08 З 4 8000 м 8/4 600 м
[Sc Ac trans Ci sp]
+28.0 +23.6 77 +38 +38 очень
душно
1009.0 994.5 +33.2
15 20.08 штиль 0 7000 м 8/4 600 м
[Sc Ac trans Ci sp]
+27.0 +23.4 81 +37 +37 очень
душно
1010.5 995.9
18 20.08 штиль 0 7000 м 8/4 600 м
[Sc Ac trans Ci sp]
+26.8 +23.5 82 +36 +36 очень
душно
1011.3 996.7
21 20.08 З 3 4000 м слаб. дождь 10/5 540 м
[Sc Ac As Ci sp]
+25.0 +22.9 88 +33 +33 очень
душно
1010.3 995.8 0.0
00 21.08 штиль 0 7000 м {дождь} 9/5 600 м
[Sc Ac trans Ci sp]
+25.8 +21.5 77 +33 +33 очень
душно
1010.1 995.6 +24.4 3
03 21.08 ЮЗ 6 10 км 9/5 600 м
[Cu med, cong Ac trans Ci sp]
+29.8 +23.4 69 +40 +42 очень
душно
1012.1 997.5
06 21.08 ЮЗ 5 12 км 9/5 600 м
[Cu med, cong Ac trans Ci sp]
+31.4 +23.6 63 +42 +46 опасность
перегрева
1011.1 996.5

 

Местоположение метеостанции Сабанг (Индонезия): широта 5.87 долгота 95.32 высота над уровнем моря 126 м.

В архиве по умолчанию представлена погода в Сабанге за последнюю неделю. Архивные данные за месяц целиком и за предыдущие месяцы, начиная с января 2011 года, Вы можете получить, выбрав интересующий диапазон дат из раскрывающегося списка и нажав кнопку "Ввод!".


*Определитесь, кто Вы:
робот инопланетянин человек

Внимание! Время в таблицах - всемирное. Для получения местного времени необходимо прибавить поправку, которая равна 7 ч.

Смотрите также архив погоды в соседних городах и на ближайших метеорологических станциях:

Погода в Банда-Ачехе (Индонезия) (40 км)
Погода в Меулабохе (Индонезия) (201 км)
Погода в Лхоксёмаве (Индонезия) (220 км)
Погода в Нанкаури (Андаманские и Никобарские острова, Индия) (307 км)
Погода на Пхукете (Таиланд) (407 км)
Погода в Пхукет аэропорту (Таиланд) (416 км)
Погода в Белаване (Индонезия) (440 км)
Погода в Такуа Па (Таиланд) (450 км)
Погода на Ко Ланта (Таиланд) (452 км)
Погода в Медан Полония (Индонезия) (452 км)

Пояснения к столбцам:

Ветер - указаны скорость ветра в м/с - средняя за 10 мин, порывы в срок и между сроками (в фигурных скобках) и направление, откуда дует ветер: С - северный, СВ - северо-восточный, В - восточный, ЮВ - юго-восточный, Ю - южный, ЮЗ - юго-западный, З - западный, СЗ - северо-западный.
Видимость - горизонтальная дальность видимости в метрах или километрах. При видимости от 1 до 10 км при отсутствии осадков обычно наблюдается дымка, при ухудшении видимости до 1 км и менее - туман. В сухую погоду видимость может ухудшаться дымом, пылью или мглою.
Явления - указаны атмосферные явления, наблюдавшиеся в срок или в последний час перед сроком; фигурными скобками обозначены явления, наблюдавшиеся между сроками (за 1-3 часа до срока); квадратными скобками обозначены град или гололедные отложения с указанием их диаметра в мм.
Облачность - указаны через наклонную черту общая и нижняя облачность в баллах и высота нижней границы облаков в метрах; квадратными скобками обозначены формы облаков: Ci - перистые, Cs - перисто-слоистые, Cc - перисто-кучевые, Ac - высококучевые, As - высокослоистые, Sc - слоисто-кучевые, Ns - слоисто-дождевые, Cu - кучевые, Cb - кучево-дождевые. Подробнее классификацию облаков см. в Атласе облаков (PDF).
T - Температура воздуха - температура, измеренная на высоте 2 м над землей.
Td - Температура точки росы - температура, при понижении до которой содержащийся в воздухе водяной пар достигнет насыщения.
f - Относительная влажность воздуха - влажноcть воздуха, измеренная на высоте 2 м над землей.
Te - Эффективная температура - температура, которую ощущает одетый по сезону человек в тени. Характеристика душности погоды. При расчете учитывается влияние влажности воздуха и скорости ветра на теплоощущения человека.
Tes - Эффективная температура на солнце - температура, которую ощущает человек, с поправкой на солнечный нагрев. Характеристика знойности погоды. Зависит от высоты солнца над горизонтом, облачности и скорости ветра. Ночью, в пасмурную погоду, а также при ветре 12 м/с и более поправка равна нулю.
P - Атмосферное давление - приведенное к уровню моря атмосферное давление.
Po - Атмосферное давление - измеренное на уровне метеостанции атмосферное давление.
Tmin - Минимальная температура - минимум температуры воздуха на высоте 2 м над землей.
Tmax - Максимальная температура - максимум температуры воздуха на высоте 2 м над землей.
R - Количество осадков - Количество выпавших осадков за период времени, мм. При наведении курсора мыши на число - период времени, за который выпало указанное количество осадков.
R24 - Количество осадков - Количество выпавших осадков за 24 часа, мм.
S - Снежный покров - Высота снежного покрова, см. При наведении курсора мыши на число - состояние снежного покрова и степень покрытия местности в баллах.